Time,TemperatureF,DewpointF,PressureIn,WindDirection,WindDirectionDegrees,WindSpeedMPH,WindSpeedGustMPH,Humidity,HourlyPrecipIn,Conditions,Clouds,dailyrainin,SoftwareType,DateUTC
2013-02-26 00:00:00,33.5,29.8,30.08,ENE,71,1.0,2.0,86,0.00,,SKC,0.00,VWS V14.01,2013-02-26 05:00:00,
2013-02-26 00:01:00,33.5,29.8,30.08,NE,56,2.0,2.0,86,0.00,,SKC,0.00,VWS V14.01,2013-02-26 05:01:00,
2013-02-26 00:07:00,33.3,29.6,30.07,ENE,68,2.0,6.0,86,0.01,,SKC,0.01,VWS V14.01,2013-02-26 05:07:00,
2013-02-26 00:08:00,33.3,29.6,30.06,WSW,250,0.0,6.0,86,0.01,,SKC,0.01,VWS V14.01,2013-02-26 05:08:00,
2013-02-26 00:13:00,33.1,29.7,30.06,ESE,110,2.0,6.0,87,0.01,,SKC,0.01,VWS V14.01,2013-02-26 05:13:00,
2013-02-26 00:19:00,33.0,29.6,30.05,East,93,1.0,6.0,87,0.01,,SKC,0.01,VWS V14.01,2013-02-26 05:19:00,
2013-02-26 00:25:00,32.9,29.7,30.04,ENE,76,3.0,6.0,88,0.01,,SKC,0.01,VWS V14.01,2013-02-26 05:25:00,
2013-02-26 00:30:00,32.8,29.6,30.05,East,84,0.0,0.0,88,0.01,,SKC,0.01,VWS V14.01,2013-02-26 05:30:00,
2013-02-26 00:36:00,32.7,29.5,30.05,ESE,115,0.0,3.0,88,0.01,,SKC,0.01,VWS V14.01,2013-02-26 05:36:00,
2013-02-26 00:41:00,32.6,29.5,30.05,NNW,331,2.0,3.0,88,0.01,,SKC,0.01,VWS V14.01,2013-02-26 05:41:00,
2013-02-26 00:46:00,32.5,29.4,30.05,ENE,68,1.0,5.0,88,0.02,,SKC,0.02,VWS V14.01,2013-02-26 05:46:00,
2013-02-26 00:52:00,32.5,29.4,30.05,ENE,73,1.0,5.0,88,0.02,,SKC,0.02,VWS V14.01,2013-02-26 05:52:00,
2013-02-26 00:57:00,32.4,29.5,30.05,East,94,2.0,5.0,89,0.02,,SKC,0.02,VWS V14.01,2013-02-26 05:57:00,
2013-02-26 01:00:00,32.4,29.2,30.05,ENE,63,3.0,5.0,88,0.03,,SKC,0.03,VWS V14.01,2013-02-26 06:00:00,
2013-02-26 01:03:00,32.4,29.5,30.04,East,87,1.0,4.0,89,0.03,,SKC,0.03,VWS V14.01,2013-02-26 06:03:00,
2013-02-26 01:08:00,32.3,29.1,30.04,NW,323,1.0,5.0,88,0.03,,SKC,0.03,VWS V14.01,2013-02-26 06:08:00,
2013-02-26 01:14:00,32.2,29.0,30.03,ENE,58,3.0,9.0,88,0.03,,SKC,0.03,VWS V14.01,2013-02-26 06:14:00,
2013-02-26 01:19:00,32.2,29.3,30.02,ENE,75,1.0,9.0,89,0.04,,SKC,0.04,VWS V14.01,2013-02-26 06:19:00,
2013-02-26 01:24:00,32.1,29.2,30.02,East,94,1.0,9.0,89,0.04,,SKC,0.04,VWS V14.01,2013-02-26 06:24:00,
2013-02-26 01:30:00,32.0,29.1,30.02,East,95,3.0,3.0,89,0.03,,SKC,0.04,VWS V14.01,2013-02-26 06:30:00,
2013-02-26 01:35:00,31.9,29.0,30.02,ENE,64,2.0,5.0,89,0.04,,SKC,0.05,VWS V14.01,2013-02-26 06:35:00,
2013-02-26 01:41:00,31.8,28.9,30.02,ENE,58,1.0,6.0,89,0.04,,SKC,0.05,VWS V14.01,2013-02-26 06:41:00,
2013-02-26 01:46:00,31.7,28.8,30.02,East,96,5.0,6.0,89,0.04,,SKC,0.05,VWS V14.01,2013-02-26 06:46:00,
2013-02-26 01:51:00,31.8,28.7,30.02,East,86,1.0,6.0,88,0.04,,SKC,0.05,VWS V14.01,2013-02-26 06:51:00,
2013-02-26 01:57:00,31.7,28.6,30.01,SE,146,1.0,6.0,88,0.04,,SKC,0.05,VWS V14.01,2013-02-26 06:57:00,
2013-02-26 02:00:00,31.7,28.6,30.02,ESE,117,6.0,6.0,88,0.04,,SKC,0.05,VWS V14.01,2013-02-26 07:00:00,
2013-02-26 02:02:00,31.7,28.6,30.00,ENE,69,4.0,6.0,88,0.02,,SKC,0.05,VWS V14.01,2013-02-26 07:02:00,
2013-02-26 02:08:00,31.6,28.5,30.01,ENE,72,4.0,6.0,88,0.02,,SKC,0.05,VWS V14.01,2013-02-26 07:08:00,
2013-02-26 02:13:00,31.6,28.5,30.00,ENE,64,1.0,6.0,88,0.02,,SKC,0.05,VWS V14.01,2013-02-26 07:13:00,
2013-02-26 02:19:00,31.6,28.5,30.00,ENE,77,3.0,6.0,88,0.03,,SKC,0.06,VWS V14.01,2013-02-26 07:19:00,
2013-02-26 02:24:00,31.5,28.4,29.98,NNW,347,0.0,6.0,88,0.04,,SKC,0.07,VWS V14.01,2013-02-26 07:24:00,
2013-02-26 02:29:00,31.3,28.2,29.97,ENE,63,3.0,6.0,88,0.04,,SKC,0.07,VWS V14.01,2013-02-26 07:29:00,
2013-02-26 02:30:00,31.3,28.2,29.97,ENE,63,3.0,6.0,88,0.04,,SKC,0.07,VWS V14.01,2013-02-26 07:30:00,
2013-02-26 02:35:00,31.3,28.2,29.97,East,96,0.0,5.0,88,0.04,,SKC,0.08,VWS V14.01,2013-02-26 07:35:00,
2013-02-26 02:40:00,31.3,28.2,29.97,ENE,65,2.0,5.0,88,0.04,,SKC,0.08,VWS V14.01,2013-02-26 07:40:00,
2013-02-26 02:46:00,31.2,28.1,29.98,ENE,72,1.0,5.0,88,0.04,,SKC,0.08,VWS V14.01,2013-02-26 07:46:00,
2013-02-26 02:51:00,31.2,28.1,29.98,ENE,71,6.0,6.0,88,0.05,,SKC,0.09,VWS V14.01,2013-02-26 07:51:00,
2013-02-26 02:56:00,31.1,28.0,29.98,NE,52,0.0,7.0,88,0.06,,SKC,0.10,VWS V14.01,2013-02-26 07:56:00,
2013-02-26 03:00:00,31.1,28.0,29.99,ENE,70,2.0,7.0,88,0.06,,SKC,0.10,VWS V14.01,2013-02-26 08:00:00,
2013-02-26 03:02:00,31.1,28.0,29.98,ENE,71,1.0,2.0,88,0.06,,SKC,0.11,VWS V14.01,2013-02-26 08:02:00,
2013-02-26 03:07:00,31.1,28.0,29.98,East,84,5.0,6.0,88,0.08,,SKC,0.13,VWS V14.01,2013-02-26 08:07:00,
2013-02-26 03:13:00,31.0,27.9,29.97,East,82,1.0,6.0,88,0.11,,SKC,0.16,VWS V14.01,2013-02-26 08:13:00,
2013-02-26 03:18:00,31.0,27.9,29.98,ESE,113,1.0,6.0,88,0.13,,SKC,0.18,VWS V14.01,2013-02-26 08:18:00,
2013-02-26 03:24:00,30.9,27.8,29.98,ENE,77,0.0,6.0,88,0.14,,SKC,0.19,VWS V14.01,2013-02-26 08:24:00,
2013-02-26 03:29:00,30.9,27.8,29.97,ENE,70,1.0,6.0,88,0.15,,SKC,0.20,VWS V14.01,2013-02-26 08:29:00,
2013-02-26 03:30:00,30.8,27.7,29.97,ENE,75,2.0,6.0,88,0.15,,SKC,0.20,VWS V14.01,2013-02-26 08:30:00,
2013-02-26 03:34:00,30.8,27.7,29.97,NW,307,0.0,4.0,88,0.14,,SKC,0.21,VWS V14.01,2013-02-26 08:34:00,
2013-02-26 03:40:00,30.8,27.7,29.98,East,89,1.0,7.0,88,0.15,,SKC,0.22,VWS V14.01,2013-02-26 08:40:00,
2013-02-26 03:45:00,30.8,27.7,29.98,ENE,65,2.0,7.0,88,0.17,,SKC,0.24,VWS V14.01,2013-02-26 08:45:00,
2013-02-26 03:51:00,30.8,27.7,29.97,ENE,75,2.0,7.0,88,0.17,,SKC,0.24,VWS V14.01,2013-02-26 08:51:00,
2013-02-26 03:56:00,30.8,27.7,29.98,East,79,2.0,7.0,88,0.18,,SKC,0.25,VWS V14.01,2013-02-26 08:56:00,
2013-02-26 04:00:00,30.8,27.7,29.98,East,89,8.0,8.0,88,0.19,,SKC,0.26,VWS V14.01,2013-02-26 09:00:00,
2013-02-26 04:02:00,30.8,27.7,29.98,East,94,0.0,8.0,88,0.16,,SKC,0.26,VWS V14.01,2013-02-26 09:02:00,
2013-02-26 04:07:00,30.8,27.7,29.97,ENE,68,3.0,8.0,88,0.17,,SKC,0.27,VWS V14.01,2013-02-26 09:07:00,
2013-02-26 04:12:00,30.7,27.6,29.97,ESE,112,1.0,8.0,88,0.18,,SKC,0.28,VWS V14.01,2013-02-26 09:12:00,
2013-02-26 04:18:00,30.7,27.6,29.96,North,6,1.0,8.0,88,0.20,,SKC,0.30,VWS V14.01,2013-02-26 09:18:00,
2013-02-26 04:23:00,30.6,27.5,29.95,ENE,74,2.0,8.0,88,0.22,,SKC,0.32,VWS V14.01,2013-02-26 09:23:00,
2013-02-26 04:29:00,30.5,27.4,29.94,NE,54,0.0,8.0,88,0.24,,SKC,0.34,VWS V14.01,2013-02-26 09:29:00,
2013-02-26 04:30:00,30.5,27.4,29.94,ENE,77,1.0,8.0,88,0.24,,SKC,0.34,VWS V14.01,2013-02-26 09:30:00,
2013-02-26 04:34:00,30.5,27.4,29.93,ENE,77,2.0,5.0,88,0.16,,SKC,0.36,VWS V14.01,2013-02-26 09:34:00,
2013-02-26 04:39:00,30.5,27.4,29.94,ENE,68,1.0,5.0,88,0.19,,SKC,0.39,VWS V14.01,2013-02-26 09:39:00,
2013-02-26 04:45:00,30.5,27.4,29.94,East,98,0.0,9.0,88,0.21,,SKC,0.41,VWS V14.01,2013-02-26 09:45:00,
2013-02-26 04:50:00,30.5,27.4,29.95,ENE,72,2.0,9.0,88,0.22,,SKC,0.42,VWS V14.01,2013-02-26 09:50:00,
2013-02-26 04:56:00,30.5,27.4,29.94,ENE,71,2.0,9.0,88,0.23,,SKC,0.43,VWS V14.01,2013-02-26 09:56:00,
2013-02-26 05:00:00,30.5,27.4,29.93,ENE,71,3.0,9.0,88,0.24,,SKC,0.44,VWS V14.01,2013-02-26 10:00:00,
2013-02-26 05:01:00,30.5,27.4,29.94,ESE,102,2.0,3.0,88,0.19,,SKC,0.45,VWS V14.01,2013-02-26 10:01:00,
2013-02-26 05:07:00,30.5,27.4,29.93,ENE,71,5.0,7.0,88,0.20,,SKC,0.46,VWS V14.01,2013-02-26 10:07:00,
2013-02-26 05:12:00,30.5,27.4,29.93,ENE,74,4.0,7.0,88,0.21,,SKC,0.47,VWS V14.01,2013-02-26 10:12:00,
2013-02-26 05:17:00,30.5,27.4,29.92,NNW,335,2.0,7.0,88,0.22,,SKC,0.48,VWS V14.01,2013-02-26 10:17:00,
2013-02-26 05:23:00,30.5,27.4,29.91,ENE,74,2.0,7.0,88,0.24,,SKC,0.50,VWS V14.01,2013-02-26 10:23:00,
2013-02-26 05:28:00,30.5,27.4,29.92,East,84,5.0,13.0,88,0.25,,SKC,0.51,VWS V14.01,2013-02-26 10:28:00,
2013-02-26 05:30:00,30.6,27.5,29.92,ENE,65,1.0,13.0,88,0.25,,SKC,0.51,VWS V14.01,2013-02-26 10:30:00,
2013-02-26 05:34:00,30.5,27.4,29.92,ENE,67,4.0,5.0,88,0.18,,SKC,0.52,VWS V14.01,2013-02-26 10:34:00,
2013-02-26 05:39:00,30.6,27.5,29.90,ENE,76,3.0,6.0,88,0.20,,SKC,0.54,VWS V14.01,2013-02-26 10:39:00,
2013-02-26 05:44:00,30.7,27.6,29.91,East,93,2.0,7.0,88,0.21,,SKC,0.55,VWS V14.01,2013-02-26 10:44:00,
2013-02-26 05:50:00,30.7,27.6,29.89,ENE,77,3.0,7.0,88,0.22,,SKC,0.56,VWS V14.01,2013-02-26 10:50:00,
2013-02-26 05:55:00,30.8,27.7,29.89,ESE,105,0.0,7.0,88,0.23,,SKC,0.57,VWS V14.01,2013-02-26 10:55:00,
2013-02-26 06:00:00,30.8,27.7,29.89,ESE,122,0.0,7.0,88,0.24,,SKC,0.58,VWS V14.01,2013-02-26 11:00:00,
2013-02-26 06:01:00,30.8,27.7,29.89,ENE,73,1.0,4.0,88,0.15,,SKC,0.59,VWS V14.01,2013-02-26 11:01:00,
2013-02-26 06:06:00,30.9,27.5,29.89,NE,47,2.0,4.0,87,0.16,,SKC,0.60,VWS V14.01,2013-02-26 11:06:00,
2013-02-26 06:12:00,30.9,27.5,29.89,ENE,72,3.0,4.0,87,0.17,,SKC,0.61,VWS V14.01,2013-02-26 11:12:00,
2013-02-26 06:17:00,31.0,27.6,29.90,SSE,163,1.0,6.0,87,0.20,,SKC,0.64,VWS V14.01,2013-02-26 11:17:00,
2013-02-26 06:22:00,31.1,27.7,29.90,ENE,75,2.0,6.0,87,0.22,,SKC,0.66,VWS V14.01,2013-02-26 11:22:00,
2013-02-26 06:28:00,31.1,27.7,29.90,ENE,64,4.0,6.0,87,0.26,,SKC,0.70,VWS V14.01,2013-02-26 11:28:00,
2013-02-26 06:30:00,31.1,27.7,29.89,ENE,77,2.0,6.0,87,0.27,,SKC,0.71,VWS V14.01,2013-02-26 11:30:00,
2013-02-26 06:33:00,31.2,27.8,29.88,ENE,71,2.0,5.0,87,0.22,,SKC,0.73,VWS V14.01,2013-02-26 11:33:00,
2013-02-26 06:39:00,31.3,27.9,29.89,ENE,70,4.0,5.0,87,0.25,,SKC,0.76,VWS V14.01,2013-02-26 11:39:00,
2013-02-26 06:44:00,31.3,27.9,29.88,East,89,0.0,7.0,87,0.29,,SKC,0.80,VWS V14.01,2013-02-26 11:44:00,
2013-02-26 06:50:00,31.5,28.1,29.90,East,93,2.0,7.0,87,0.31,,SKC,0.82,VWS V14.01,2013-02-26 11:50:00,
2013-02-26 06:55:00,31.6,27.9,29.90,ENE,68,3.0,7.0,86,0.34,,SKC,0.85,VWS V14.01,2013-02-26 11:55:00,
2013-02-26 07:00:00,31.6,27.9,29.88,ENE,77,1.0,1.0,86,0.31,,SKC,0.89,VWS V14.01,2013-02-26 12:00:00,
2013-02-26 07:06:00,31.6,27.9,29.87,ENE,68,3.0,5.0,86,0.34,,SKC,0.92,VWS V14.01,2013-02-26 12:06:00,
2013-02-26 07:11:00,31.7,28.0,29.87,ENE,60,0.0,5.0,86,0.35,,SKC,0.93,VWS V14.01,2013-02-26 12:11:00,
2013-02-26 07:17:00,31.7,28.0,29.86,East,86,1.0,9.0,86,0.37,,SKC,0.95,VWS V14.01,2013-02-26 12:17:00,
2013-02-26 07:22:00,31.7,28.3,29.86,ENE,68,5.0,9.0,87,0.39,,SKC,0.97,VWS V14.01,2013-02-26 12:22:00,
2013-02-26 07:27:00,31.7,28.3,29.86,East,83,5.0,9.0,87,0.42,,SKC,1.00,VWS V14.01,2013-02-26 12:27:00,
2013-02-26 07:30:00,31.7,28.3,29.86,East,86,1.0,9.0,87,0.43,,SKC,1.01,VWS V14.01,2013-02-26 12:30:00,
2013-02-26 07:33:00,31.7,28.3,29.85,East,96,3.0,3.0,87,0.32,,SKC,1.03,VWS V14.01,2013-02-26 12:33:00,
2013-02-26 07:38:00,31.7,28.3,29.85,ENE,75,0.0,3.0,87,0.34,,SKC,1.05,VWS V14.01,2013-02-26 12:38:00,
2013-02-26 07:44:00,31.7,28.3,29.86,ENE,75,4.0,5.0,87,0.34,,SKC,1.05,VWS V14.01,2013-02-26 12:44:00,
2013-02-26 07:49:00,31.7,28.3,29.87,SSE,151,1.0,6.0,87,0.38,,SKC,1.09,VWS V14.01,2013-02-26 12:49:00,
2013-02-26 07:55:00,31.7,28.3,29.87,ENE,64,1.0,6.0,87,0.39,,SKC,1.10,VWS V14.01,2013-02-26 12:55:00,
2013-02-26 08:00:00,31.8,28.4,29.90,ENE,65,3.0,3.0,87,0.23,,SKC,1.12,VWS V14.01,2013-02-26 13:00:00,
2013-02-26 08:05:00,31.8,28.4,29.87,ESE,103,7.0,7.0,87,0.23,,SKC,1.12,VWS V14.01,2013-02-26 13:05:00,
2013-02-26 08:11:00,31.8,28.4,29.87,East,80,1.0,8.0,87,0.24,,SKC,1.13,VWS V14.01,2013-02-26 13:11:00,
2013-02-26 08:16:00,31.9,28.5,29.86,NE,54,4.0,8.0,87,0.25,,SKC,1.14,VWS V14.01,2013-02-26 13:16:00,
2013-02-26 08:22:00,31.9,28.5,29.85,East,98,4.0,8.0,87,0.25,,SKC,1.14,VWS V14.01,2013-02-26 13:22:00,
2013-02-26 08:27:00,32.1,28.7,29.85,East,101,4.0,8.0,87,0.26,,SKC,1.15,VWS V14.01,2013-02-26 13:27:00,
2013-02-26 08:30:00,32.1,28.7,29.85,East,90,8.0,8.0,87,0.26,,SKC,1.15,VWS V14.01,2013-02-26 13:30:00,
2013-02-26 08:32:00,32.1,28.7,29.85,East,79,5.0,15.0,87,0.14,,SKC,1.15,VWS V14.01,2013-02-26 13:32:00,
2013-02-26 08:38:00,32.1,28.7,29.84,ENE,68,4.0,15.0,87,0.15,,SKC,1.16,VWS V14.01,2013-02-26 13:38:00,
2013-02-26 08:43:00,32.1,28.7,29.83,ENE,73,3.0,15.0,87,0.15,,SKC,1.16,VWS V14.01,2013-02-26 13:43:00,
2013-02-26 08:49:00,32.2,28.8,29.84,East,85,3.0,15.0,87,0.15,,SKC,1.16,VWS V14.01,2013-02-26 13:49:00,
2013-02-26 08:54:00,32.2,28.8,29.83,East,99,6.0,15.0,87,0.15,,SKC,1.16,VWS V14.01,2013-02-26 13:54:00,
2013-02-26 08:59:00,32.2,29.0,29.82,ENE,78,3.0,15.0,88,0.16,,SKC,1.17,VWS V14.01,2013-02-26 13:59:00,
2013-02-26 09:00:00,32.2,29.0,29.82,ENE,78,3.0,15.0,88,0.16,,SKC,1.17,VWS V14.01,2013-02-26 14:00:00,
2013-02-26 09:05:00,32.1,29.0,29.83,ENE,75,1.0,13.0,88,0.06,,SKC,1.17,VWS V14.01,2013-02-26 14:05:00,
2013-02-26 09:10:00,32.2,29.0,29.82,ENE,70,4.0,13.0,88,0.06,,SKC,1.17,VWS V14.01,2013-02-26 14:10:00,
2013-02-26 09:16:00,32.2,29.0,29.82,WSW,239,0.0,13.0,88,0.08,,SKC,1.19,VWS V14.01,2013-02-26 14:16:00,
2013-02-26 09:21:00,32.2,28.8,29.82,East,86,1.0,13.0,87,0.08,,SKC,1.19,VWS V14.01,2013-02-26 14:21:00,
2013-02-26 09:27:00,32.3,28.9,29.83,ESE,110,3.0,13.0,87,0.08,,SKC,1.19,VWS V14.01,2013-02-26 14:27:00,
2013-02-26 09:30:00,32.3,28.9,29.83,ENE,71,1.0,13.0,87,0.08,,SKC,1.19,VWS V14.01,2013-02-26 14:30:00,
2013-02-26 09:32:00,32.4,29.0,29.83,East,94,0.0,3.0,87,0.04,,SKC,1.19,VWS V14.01,2013-02-26 14:32:00,
2013-02-26 09:38:00,32.4,29.0,29.81,East,85,6.0,7.0,87,0.04,,SKC,1.19,VWS V14.01,2013-02-26 14:38:00,
2013-02-26 09:43:00,32.4,29.0,29.80,East,86,1.0,7.0,87,0.04,,SKC,1.19,VWS V14.01,2013-02-26 14:43:00,
2013-02-26 09:48:00,32.5,29.1,29.81,ENE,77,1.0,7.0,87,0.04,,SKC,1.19,VWS V14.01,2013-02-26 14:48:00,
2013-02-26 09:54:00,32.6,29.2,29.81,ESE,114,4.0,7.0,87,0.04,,SKC,1.19,VWS V14.01,2013-02-26 14:54:00,
2013-02-26 09:59:00,32.7,29.3,29.80,East,84,2.0,7.0,87,0.04,,SKC,1.19,VWS V14.01,2013-02-26 14:59:00,
2013-02-26 10:00:00,32.7,29.3,29.80,East,84,2.0,7.0,87,0.04,,SKC,1.19,VWS V14.01,2013-02-26 15:00:00,
2013-02-26 10:05:00,32.7,29.3,29.79,ENE,75,3.0,5.0,87,0.02,,SKC,1.19,VWS V14.01,2013-02-26 15:05:00,
2013-02-26 10:10:00,32.9,29.5,29.79,East,86,0.0,5.0,87,0.02,,SKC,1.19,VWS V14.01,2013-02-26 15:10:00,
2013-02-26 10:16:00,32.9,29.5,29.78,ENE,67,1.0,10.0,87,0.02,,SKC,1.19,VWS V14.01,2013-02-26 15:16:00,
2013-02-26 10:21:00,33.1,29.7,29.79,ENE,65,2.0,10.0,87,0.02,,SKC,1.19,VWS V14.01,2013-02-26 15:21:00,
2013-02-26 10:26:00,33.2,29.8,29.77,East,85,3.0,10.0,87,0.03,,SKC,1.20,VWS V14.01,2013-02-26 15:26:00,
2013-02-26 10:30:00,33.2,29.8,29.77,ENE,68,1.0,10.0,87,0.03,,SKC,1.20,VWS V14.01,2013-02-26 15:30:00,
2013-02-26 10:32:00,33.3,29.9,29.76,East,100,2.0,3.0,87,0.01,,SKC,1.20,VWS V14.01,2013-02-26 15:32:00,
2013-02-26 10:37:00,33.4,30.0,29.76,East,87,2.0,6.0,87,0.01,,SKC,1.20,VWS V14.01,2013-02-26 15:37:00,
2013-02-26 10:43:00,33.5,30.0,29.75,East,84,2.0,6.0,87,0.01,,SKC,1.20,VWS V14.01,2013-02-26 15:43:00,
2013-02-26 10:48:00,33.5,30.0,29.74,ESE,110,3.0,6.0,87,0.01,,SKC,1.20,VWS V14.01,2013-02-26 15:48:00,
2013-02-26 10:53:00,33.6,30.1,29.73,East,83,4.0,6.0,87,0.01,,SKC,1.20,VWS V14.01,2013-02-26 15:53:00,
2013-02-26 10:59:00,33.6,30.1,29.72,ESE,118,1.0,8.0,87,0.02,,SKC,1.21,VWS V14.01,2013-02-26 15:59:00,
2013-02-26 11:00:00,33.6,30.1,29.72,ENE,73,2.0,8.0,87,0.02,,SKC,1.21,VWS V14.01,2013-02-26 16:00:00,
2013-02-26 11:04:00,33.6,30.1,29.72,East,82,2.0,7.0,87,0.02,,SKC,1.21,VWS V14.01,2013-02-26 16:04:00,
2013-02-26 11:10:00,33.6,30.1,29.71,East,83,2.0,7.0,87,0.02,,SKC,1.21,VWS V14.01,2013-02-26 16:10:00,
2013-02-26 11:15:00,33.6,30.1,29.72,ENE,75,2.0,8.0,87,0.02,,SKC,1.21,VWS V14.01,2013-02-26 16:15:00,
2013-02-26 11:21:00,33.7,30.2,29.73,East,93,2.0,8.0,87,0.02,,SKC,1.21,VWS V14.01,2013-02-26 16:21:00,
2013-02-26 11:26:00,33.8,30.4,29.73,ESE,108,2.0,8.0,87,0.02,,SKC,1.21,VWS V14.01,2013-02-26 16:26:00,
2013-02-26 11:30:00,33.9,30.2,29.73,ESE,111,1.0,8.0,86,0.02,,SKC,1.21,VWS V14.01,2013-02-26 16:30:00,
2013-02-26 11:31:00,34.0,30.3,29.73,ENE,65,0.0,6.0,86,0.01,,SKC,1.21,VWS V14.01,2013-02-26 16:31:00,
2013-02-26 11:37:00,34.0,30.5,29.74,West,274,1.0,6.0,87,0.01,,SKC,1.21,VWS V14.01,2013-02-26 16:37:00,
2013-02-26 11:42:00,34.1,30.4,29.74,ENE,77,2.0,6.0,86,0.01,,SKC,1.21,VWS V14.01,2013-02-26 16:42:00,
2013-02-26 11:48:00,34.2,30.5,29.74,ENE,77,2.0,6.0,86,0.02,,SKC,1.22,VWS V14.01,2013-02-26 16:48:00,
2013-02-26 11:53:00,34.3,30.8,29.75,ENE,60,1.0,6.0,87,0.03,,SKC,1.23,VWS V14.01,2013-02-26 16:53:00,
2013-02-26 11:58:00,34.4,30.6,29.75,ENE,71,4.0,6.0,86,0.03,,SKC,1.23,VWS V14.01,2013-02-26 16:58:00,
2013-02-26 12:00:00,34.4,30.6,29.75,NE,46,3.0,6.0,86,0.03,,SKC,1.23,VWS V14.01,2013-02-26 17:00:00,
2013-02-26 12:04:00,34.5,30.8,29.74,East,92,0.0,3.0,86,0.03,,SKC,1.24,VWS V14.01,2013-02-26 17:04:00,
2013-02-26 12:09:00,34.6,30.9,29.74,ENE,64,4.0,4.0,86,0.03,,SKC,1.24,VWS V14.01,2013-02-26 17:09:00,
2013-02-26 12:15:00,34.8,31.0,29.72,ENE,70,3.0,4.0,86,0.04,,SKC,1.25,VWS V14.01,2013-02-26 17:15:00,
2013-02-26 12:20:00,34.8,31.0,29.73,East,81,1.0,4.0,86,0.04,,SKC,1.25,VWS V14.01,2013-02-26 17:20:00,
2013-02-26 12:26:00,34.8,31.0,29.73,ENE,78,0.0,4.0,86,0.05,,SKC,1.26,VWS V14.01,2013-02-26 17:26:00,
2013-02-26 12:30:00,34.8,31.0,29.73,ENE,73,1.0,4.0,86,0.05,,SKC,1.26,VWS V14.01,2013-02-26 17:30:00,
2013-02-26 12:31:00,34.9,31.1,29.73,ENE,73,0.0,1.0,86,0.05,,SKC,1.26,VWS V14.01,2013-02-26 17:31:00,
2013-02-26 12:36:00,35.3,31.2,29.74,East,95,1.0,1.0,85,0.05,,SKC,1.26,VWS V14.01,2013-02-26 17:36:00,
2013-02-26 12:42:00,35.3,31.5,29.73,ENE,72,0.0,3.0,86,0.05,,SKC,1.26,VWS V14.01,2013-02-26 17:42:00,
2013-02-26 12:47:00,35.6,31.5,29.73,East,79,0.0,3.0,85,0.05,,SKC,1.26,VWS V14.01,2013-02-26 17:47:00,
2013-02-26 12:53:00,35.7,31.6,29.72,ENE,78,2.0,3.0,85,0.05,,SKC,1.26,VWS V14.01,2013-02-26 17:53:00,
2013-02-26 12:58:00,35.9,31.8,29.71,East,81,0.0,4.0,85,0.05,,SKC,1.26,VWS V14.01,2013-02-26 17:58:00,
2013-02-26 13:00:00,35.9,31.8,29.70,East,93,1.0,4.0,85,0.05,,SKC,1.26,VWS V14.01,2013-02-26 18:00:00,
2013-02-26 13:04:00,36.0,32.2,29.70,East,85,7.0,7.0,86,0.03,,SKC,1.26,VWS V14.01,2013-02-26 18:04:00,
2013-02-26 13:09:00,35.9,32.1,29.71,ENE,78,0.0,7.0,86,0.03,,SKC,1.26,VWS V14.01,2013-02-26 18:09:00,
2013-02-26 13:15:00,36.0,32.2,29.71,ENE,73,0.0,7.0,86,0.03,,SKC,1.26,VWS V14.01,2013-02-26 18:15:00,
2013-02-26 13:20:00,36.0,32.2,29.71,SE,138,0.0,7.0,86,0.03,,SKC,1.26,VWS V14.01,2013-02-26 18:20:00,
2013-02-26 13:25:00,36.0,32.2,29.70,East,87,1.0,7.0,86,0.03,,SKC,1.26,VWS V14.01,2013-02-26 18:25:00,
2013-02-26 13:30:00,35.9,32.4,29.70,SE,133,1.0,7.0,87,0.03,,SKC,1.26,VWS V14.01,2013-02-26 18:30:00,
2013-02-26 13:31:00,36.0,32.2,29.70,ENE,77,1.0,2.0,86,0.00,,SKC,1.26,VWS V14.01,2013-02-26 18:31:00,
2013-02-26 13:36:00,36.0,32.2,29.69,ENE,73,3.0,4.0,86,0.00,,SKC,1.26,VWS V14.01,2013-02-26 18:36:00,
2013-02-26 13:42:00,36.0,32.5,29.69,NE,46,2.0,4.0,87,0.00,,SKC,1.26,VWS V14.01,2013-02-26 18:42:00,
2013-02-26 13:47:00,36.1,32.6,29.69,East,79,0.0,4.0,87,0.00,,SKC,1.26,VWS V14.01,2013-02-26 18:47:00,
2013-02-26 13:53:00,36.1,32.6,29.68,ENE,72,1.0,4.0,87,0.00,,SKC,1.26,VWS V14.01,2013-02-26 18:53:00,
2013-02-26 13:58:00,36.2,32.7,29.68,ENE,68,3.0,4.0,87,0.00,,SKC,1.26,VWS V14.01,2013-02-26 18:58:00,
2013-02-26 14:00:00,36.3,32.5,29.68,ENE,73,0.0,4.0,86,0.00,,SKC,1.26,VWS V14.01,2013-02-26 19:00:00,
2013-02-26 14:04:00,36.5,32.7,29.68,East,84,1.0,3.0,86,0.00,,SKC,1.26,VWS V14.01,2013-02-26 19:04:00,
2013-02-26 14:09:00,36.6,32.8,29.68,ENE,72,1.0,3.0,86,0.00,,SKC,1.26,VWS V14.01,2013-02-26 19:09:00,
2013-02-26 14:14:00,36.7,32.9,29.68,East,88,0.0,3.0,86,0.00,,SKC,1.26,VWS V14.01,2013-02-26 19:14:00,
2013-02-26 14:20:00,36.9,33.1,29.68,ESE,105,0.0,3.0,86,0.00,,SKC,1.26,VWS V14.01,2013-02-26 19:20:00,
2013-02-26 14:25:00,37.1,33.3,29.68,East,79,1.0,3.0,86,0.00,,SKC,1.26,VWS V14.01,2013-02-26 19:25:00,
2013-02-26 14:30:00,37.2,33.4,29.68,East,84,0.0,3.0,86,0.00,,SKC,1.26,VWS V14.01,2013-02-26 19:30:00,
2013-02-26 14:31:00,37.3,33.2,29.68,ENE,73,0.0,1.0,85,0.00,,SKC,1.26,VWS V14.01,2013-02-26 19:31:00,
2013-02-26 14:36:00,37.5,33.4,29.68,ESE,103,0.0,1.0,85,0.00,,SKC,1.26,VWS V14.01,2013-02-26 19:36:00,
2013-02-26 14:42:00,37.5,33.7,29.68,ENE,78,0.0,2.0,86,0.00,,SKC,1.26,VWS V14.01,2013-02-26 19:42:00,
2013-02-26 14:47:00,37.6,33.8,29.68,East,87,0.0,2.0,86,0.00,,SKC,1.26,VWS V14.01,2013-02-26 19:47:00,
2013-02-26 14:52:00,37.7,33.9,29.69,ESE,105,0.0,2.0,86,0.00,,SKC,1.26,VWS V14.01,2013-02-26 19:52:00,
2013-02-26 14:58:00,37.8,34.0,29.69,East,91,2.0,2.0,86,0.00,,SKC,1.26,VWS V14.01,2013-02-26 19:58:00,
2013-02-26 15:00:00,37.7,34.2,29.69,WSW,252,0.0,2.0,87,0.00,,SKC,1.26,VWS V14.01,2013-02-26 20:00:00,
2013-02-26 15:03:00,37.7,34.2,29.68,East,82,0.0,5.0,87,0.00,,SKC,1.26,VWS V14.01,2013-02-26 20:03:00,
2013-02-26 15:09:00,37.7,34.2,29.69,SSE,167,0.0,5.0,87,0.00,,SKC,1.26,VWS V14.01,2013-02-26 20:09:00,
2013-02-26 15:14:00,37.7,34.2,29.68,ESE,115,0.0,5.0,87,0.00,,SKC,1.26,VWS V14.01,2013-02-26 20:14:00,
2013-02-26 15:20:00,38.0,34.2,29.69,SE,145,0.0,5.0,86,0.00,,SKC,1.26,VWS V14.01,2013-02-26 20:20:00,
2013-02-26 15:25:00,38.1,34.3,29.69,ENE,78,0.0,5.0,86,0.00,,SKC,1.26,VWS V14.01,2013-02-26 20:25:00,
2013-02-26 15:30:00,38.5,34.1,29.69,East,79,0.0,1.0,84,0.00,,SKC,1.26,VWS V14.01,2013-02-26 20:30:00,
2013-02-26 15:36:00,38.7,34.6,29.69,ENE,78,0.0,1.0,85,0.00,,SKC,1.26,VWS V14.01,2013-02-26 20:36:00,
2013-02-26 15:41:00,39.0,34.9,29.69,East,84,0.0,1.0,85,0.00,,SKC,1.26,VWS V14.01,2013-02-26 20:41:00,
2013-02-26 15:47:00,39.0,35.2,29.69,ESE,118,0.0,1.0,86,0.00,,SKC,1.26,VWS V14.01,2013-02-26 20:47:00,
2013-02-26 15:52:00,39.1,35.3,29.68,East,93,0.0,1.0,86,0.00,,SKC,1.26,VWS V14.01,2013-02-26 20:52:00,
2013-02-26 15:57:00,39.4,35.3,29.68,ENE,77,0.0,1.0,85,0.00,,SKC,1.26,VWS V14.01,2013-02-26 20:57:00,
2013-02-26 16:00:00,39.3,35.8,29.68,ENE,76,0.0,1.0,87,0.00,,SKC,1.26,VWS V14.01,2013-02-26 21:00:00,
2013-02-26 16:03:00,39.4,35.9,29.68,ENE,77,1.0,1.0,87,0.00,,SKC,1.26,VWS V14.01,2013-02-26 21:03:00,
2013-02-26 16:08:00,39.3,36.0,29.68,ESE,108,0.0,1.0,88,0.00,,SKC,1.26,VWS V14.01,2013-02-26 21:08:00,
2013-02-26 16:14:00,39.2,36.0,29.68,East,80,0.0,1.0,88,0.00,,SKC,1.26,VWS V14.01,2013-02-26 21:14:00,
2013-02-26 16:19:00,39.2,36.0,29.67,East,96,0.0,1.0,88,0.00,,SKC,1.26,VWS V14.01,2013-02-26 21:19:00,
2013-02-26 16:25:00,39.1,35.8,29.68,East,86,0.0,1.0,88,0.00,,SKC,1.26,VWS V14.01,2013-02-26 21:25:00,
2013-02-26 16:30:00,39.1,35.8,29.68,ESE,110,0.0,0.0,88,0.00,,SKC,1.26,VWS V14.01,2013-02-26 21:30:00,
2013-02-26 16:36:00,39.1,35.8,29.68,SW,232,0.0,1.0,88,0.00,,SKC,1.26,VWS V14.01,2013-02-26 21:36:00,
2013-02-26 16:41:00,39.1,35.8,29.67,ESE,109,2.0,2.0,88,0.00,,SKC,1.26,VWS V14.01,2013-02-26 21:41:00,
2013-02-26 16:47:00,39.1,35.8,29.67,ESE,122,0.0,2.0,88,0.00,,SKC,1.26,VWS V14.01,2013-02-26 21:47:00,
2013-02-26 16:52:00,39.2,36.0,29.67,WSW,252,0.0,2.0,88,0.00,,SKC,1.26,VWS V14.01,2013-02-26 21:52:00,
2013-02-26 16:58:00,39.5,36.2,29.67,WSW,252,0.0,2.0,88,0.00,,SKC,1.26,VWS V14.01,2013-02-26 21:58:00,
2013-02-26 17:00:00,39.5,36.2,29.67,WSW,252,0.0,2.0,88,0.00,,SKC,1.26,VWS V14.01,2013-02-26 22:00:00,
2013-02-26 17:03:00,39.6,36.3,29.67,ESE,110,0.0,0.0,88,0.00,,SKC,1.26,VWS V14.01,2013-02-26 22:03:00,
2013-02-26 17:08:00,39.8,36.5,29.67,ESE,110,0.0,0.0,88,0.00,,SKC,1.26,VWS V14.01,2013-02-26 22:08:00,
2013-02-26 17:14:00,39.9,36.6,29.67,ESE,111,0.0,0.0,88,0.00,,SKC,1.26,VWS V14.01,2013-02-26 22:14:00,
2013-02-26 17:19:00,39.8,36.5,29.67,ESE,110,0.0,0.0,88,0.00,,SKC,1.26,VWS V14.01,2013-02-26 22:19:00,
2013-02-26 17:25:00,39.8,36.5,29.67,ESE,110,0.0,1.0,88,0.00,,SKC,1.26,VWS V14.01,2013-02-26 22:25:00,
2013-02-26 17:30:00,39.9,36.6,29.67,ESE,110,0.0,0.0,88,0.00,,SKC,1.26,VWS V14.01,2013-02-26 22:30:00,
2013-02-26 17:36:00,40.1,36.8,29.67,ESE,110,0.0,0.0,88,0.00,,SKC,1.26,VWS V14.01,2013-02-26 22:36:00,
2013-02-26 17:41:00,40.1,36.8,29.67,ESE,110,0.0,0.0,88,0.00,,SKC,1.26,VWS V14.01,2013-02-26 22:41:00,
2013-02-26 17:46:00,40.1,36.8,29.68,ESE,110,0.0,0.0,88,0.00,,SKC,1.26,VWS V14.01,2013-02-26 22:46:00,
2013-02-26 17:52:00,40.0,36.7,29.68,ESE,110,0.0,0.0,88,0.00,,SKC,1.26,VWS V14.01,2013-02-26 22:52:00,
2013-02-26 17:57:00,39.9,36.6,29.68,ESE,110,0.0,0.0,88,0.00,,SKC,1.26,VWS V14.01,2013-02-26 22:57:00,
2013-02-26 18:00:00,39.9,36.6,29.68,ESE,110,0.0,0.0,88,0.00,,SKC,1.26,VWS V14.01,2013-02-26 23:00:00,
2013-02-26 18:03:00,39.8,36.5,29.68,ESE,110,0.0,0.0,88,0.00,,SKC,1.26,VWS V14.01,2013-02-26 23:03:00,
2013-02-26 18:08:00,39.8,36.5,29.68,ESE,110,0.0,0.0,88,0.00,,SKC,1.26,VWS V14.01,2013-02-26 23:08:00,
2013-02-26 18:13:00,39.6,36.3,29.69,ESE,110,0.0,0.0,88,0.00,,SKC,1.26,VWS V14.01,2013-02-26 23:13:00,
2013-02-26 18:19:00,39.6,36.3,29.69,ESE,110,0.0,0.0,88,0.00,,SKC,1.26,VWS V14.01,2013-02-26 23:19:00,
2013-02-26 18:24:00,39.5,36.2,29.69,ESE,110,0.0,0.0,88,0.00,,SKC,1.26,VWS V14.01,2013-02-26 23:24:00,
2013-02-26 18:30:00,39.4,36.2,29.70,ESE,110,0.0,0.0,88,0.00,,SKC,1.26,VWS V14.01,2013-02-26 23:30:00,
2013-02-26 18:35:00,39.4,36.2,29.70,ESE,110,0.0,0.0,88,0.00,,SKC,1.26,VWS V14.01,2013-02-26 23:35:00,
2013-02-26 18:41:00,39.3,36.0,29.70,ESE,110,0.0,0.0,88,0.00,,SKC,1.26,VWS V14.01,2013-02-26 23:41:00,
2013-02-26 18:46:00,39.3,35.8,29.71,ESE,110,0.0,0.0,87,0.00,,SKC,1.26,VWS V14.01,2013-02-26 23:46:00,
2013-02-26 18:51:00,39.3,35.8,29.71,ESE,110,0.0,0.0,87,0.00,,SKC,1.26,VWS V14.01,2013-02-26 23:51:00,
2013-02-26 18:57:00,39.4,35.9,29.71,ESE,110,0.0,0.0,87,0.00,,SKC,1.26,VWS V14.01,2013-02-26 23:57:00,
2013-02-26 19:00:00,39.3,35.8,29.71,ESE,110,0.0,0.0,87,0.00,,SKC,1.26,VWS V14.01,2013-02-27 00:00:00,
2013-02-26 19:02:00,39.4,35.6,29.71,ESE,110,0.0,0.0,86,0.00,,SKC,1.26,VWS V14.01,2013-02-27 00:02:00,
2013-02-26 19:08:00,39.5,35.7,29.71,ESE,111,0.0,0.0,86,0.00,,SKC,1.26,VWS V14.01,2013-02-27 00:08:00,
2013-02-26 19:13:00,39.6,35.8,29.71,SSE,162,0.0,1.0,86,0.00,,SKC,1.26,VWS V14.01,2013-02-27 00:13:00,
2013-02-26 19:19:00,39.6,35.8,29.72,SSE,162,0.0,1.0,86,0.00,,SKC,1.26,VWS V14.01,2013-02-27 00:19:00,
2013-02-26 19:24:00,39.7,35.9,29.72,ESE,112,0.0,1.0,86,0.00,,SKC,1.26,VWS V14.01,2013-02-27 00:24:00,
2013-02-26 19:29:00,39.9,35.8,29.72,SSW,203,0.0,1.0,85,0.00,,SKC,1.26,VWS V14.01,2013-02-27 00:29:00,
2013-02-26 19:30:00,39.9,35.8,29.72,SSW,203,0.0,1.0,85,0.00,,SKC,1.26,VWS V14.01,2013-02-27 00:30:00,
2013-02-26 19:35:00,40.0,35.9,29.72,WSW,243,0.0,0.0,85,0.00,,SKC,1.26,VWS V14.01,2013-02-27 00:35:00,
2013-02-26 19:40:00,40.1,35.7,29.72,WSW,252,0.0,1.0,84,0.00,,SKC,1.26,VWS V14.01,2013-02-27 00:40:00,
2013-02-26 19:46:00,40.1,35.7,29.71,SW,217,0.0,1.0,84,0.00,,SKC,1.26,VWS V14.01,2013-02-27 00:46:00,
2013-02-26 19:51:00,40.2,35.8,29.71,SW,217,0.0,1.0,84,0.00,,SKC,1.26,VWS V14.01,2013-02-27 00:51:00,
2013-02-26 19:57:00,40.2,35.8,29.71,West,269,0.0,1.0,84,0.00,,SKC,1.26,VWS V14.01,2013-02-27 00:57:00,
2013-02-26 20:00:00,40.3,35.9,29.71,West,274,0.0,1.0,84,0.00,,SKC,1.26,VWS V14.01,2013-02-27 01:00:00,
2013-02-26 20:02:00,40.3,35.9,29.71,West,274,0.0,0.0,84,0.00,,SKC,1.26,VWS V14.01,2013-02-27 01:02:00,
2013-02-26 20:07:00,40.3,35.9,29.71,West,274,0.0,0.0,84,0.00,,SKC,1.26,VWS V14.01,2013-02-27 01:07:00,
2013-02-26 20:13:00,40.4,36.0,29.71,West,279,0.0,0.0,84,0.00,,SKC,1.26,VWS V14.01,2013-02-27 01:13:00,
2013-02-26 20:18:00,40.4,36.0,29.72,SE,146,0.0,0.0,84,0.00,,SKC,1.26,VWS V14.01,2013-02-27 01:18:00,
2013-02-26 20:24:00,40.5,36.0,29.72,West,260,0.0,0.0,84,0.00,,SKC,1.26,VWS V14.01,2013-02-27 01:24:00,
2013-02-26 20:29:00,40.5,36.0,29.72,West,260,0.0,0.0,84,0.00,,SKC,1.26,VWS V14.01,2013-02-27 01:29:00,
2013-02-26 20:30:00,40.5,36.0,29.72,West,260,0.0,0.0,84,0.00,,SKC,1.26,VWS V14.01,2013-02-27 01:30:00,
2013-02-26 20:35:00,40.5,36.0,29.72,WNW,295,0.0,2.0,84,0.00,,SKC,1.26,VWS V14.01,2013-02-27 01:35:00,
2013-02-26 20:40:00,40.5,36.0,29.72,WNW,291,0.0,2.0,84,0.00,,SKC,1.26,VWS V14.01,2013-02-27 01:40:00,
2013-02-26 20:46:00,40.5,36.0,29.72,SSW,207,1.0,2.0,84,0.00,,SKC,1.26,VWS V14.01,2013-02-27 01:46:00,
2013-02-26 20:51:00,40.5,36.0,29.72,WSW,248,0.0,2.0,84,0.00,,SKC,1.26,VWS V14.01,2013-02-27 01:51:00,
2013-02-26 20:57:00,40.5,36.0,29.72,WSW,243,0.0,2.0,84,0.00,,SKC,1.26,VWS V14.01,2013-02-27 01:57:00,
2013-02-26 21:00:00,40.5,36.0,29.72,West,261,0.0,2.0,84,0.00,,SKC,1.26,VWS V14.01,2013-02-27 02:00:00,
2013-02-26 21:02:00,40.5,36.0,29.72,West,267,1.0,1.0,84,0.00,,SKC,1.26,VWS V14.01,2013-02-27 02:02:00,
2013-02-26 21:07:00,40.4,36.0,29.73,WSW,245,0.0,1.0,84,0.00,,SKC,1.26,VWS V14.01,2013-02-27 02:07:00,
2013-02-26 21:15:00,40.4,36.0,29.73,SSW,200,0.0,1.0,84,0.00,,SKC,1.26,VWS V14.01,2013-02-27 02:15:00,
2013-02-26 21:20:00,40.4,36.0,29.73,SW,215,0.0,2.0,84,0.00,,SKC,1.26,VWS V14.01,2013-02-27 02:20:00,
2013-02-26 21:26:00,40.3,35.9,29.74,WSW,258,0.0,2.0,84,0.00,,SKC,1.26,VWS V14.01,2013-02-27 02:26:00,
2013-02-26 21:30:00,40.3,35.9,29.74,ESE,117,0.0,2.0,84,0.00,,SKC,1.26,VWS V14.01,2013-02-27 02:30:00,
2013-02-26 21:32:00,40.3,35.9,29.74,WNW,302,0.0,4.0,84,0.00,,SKC,1.26,VWS V14.01,2013-02-27 02:32:00,
2013-02-26 21:37:00,40.3,35.9,29.74,South,184,0.0,4.0,84,0.00,,SKC,1.26,VWS V14.01,2013-02-27 02:37:00,
2013-02-26 21:42:00,40.3,35.9,29.74,SSW,205,0.0,4.0,84,0.00,,SKC,1.26,VWS V14.01,2013-02-27 02:42:00,
2013-02-26 21:48:00,40.3,35.6,29.74,South,187,0.0,4.0,83,0.00,,SKC,1.26,VWS V14.01,2013-02-27 02:48:00,
2013-02-26 21:53:00,40.4,35.7,29.74,WNW,295,1.0,4.0,83,0.00,,SKC,1.26,VWS V14.01,2013-02-27 02:53:00,
2013-02-26 21:59:00,40.4,35.7,29.74,SW,218,0.0,4.0,83,0.00,,SKC,1.26,VWS V14.01,2013-02-27 02:59:00,
2013-02-26 22:00:00,40.4,35.7,29.74,SW,218,0.0,4.0,83,0.00,,SKC,1.26,VWS V14.01,2013-02-27 03:00:00,
2013-02-26 22:04:00,40.4,35.7,29.75,SSW,198,0.0,2.0,83,0.00,,SKC,1.26,VWS V14.01,2013-02-27 03:04:00,
2013-02-26 22:10:00,40.4,35.7,29.74,ESE,104,0.0,2.0,83,0.00,,SKC,1.26,VWS V14.01,2013-02-27 03:10:00,
2013-02-26 22:15:00,40.3,35.9,29.74,SW,219,0.0,2.0,84,0.00,,SKC,1.26,VWS V14.01,2013-02-27 03:15:00,
2013-02-26 22:20:00,40.2,35.8,29.74,WSW,248,0.0,2.0,84,0.00,,SKC,1.26,VWS V14.01,2013-02-27 03:20:00,
2013-02-26 22:26:00,40.0,35.9,29.73,SSE,150,0.0,2.0,85,0.00,,SKC,1.26,VWS V14.01,2013-02-27 03:26:00,
2013-02-26 22:30:00,39.8,35.7,29.73,SSE,150,0.0,2.0,85,0.00,,SKC,1.26,VWS V14.01,2013-02-27 03:30:00,
2013-02-26 22:31:00,39.8,35.7,29.73,WNW,290,0.0,1.0,85,0.00,,SKC,1.26,VWS V14.01,2013-02-27 03:31:00,
2013-02-26 22:37:00,39.6,35.2,29.74,West,271,0.0,1.0,84,0.00,,SKC,1.26,VWS V14.01,2013-02-27 03:37:00,
2013-02-26 22:42:00,39.4,35.3,29.74,SW,229,0.0,1.0,85,0.00,,SKC,1.26,VWS V14.01,2013-02-27 03:42:00,
2013-02-26 22:48:00,39.3,34.9,29.73,SSE,148,1.0,2.0,84,0.00,,SKC,1.26,VWS V14.01,2013-02-27 03:48:00,
2013-02-26 22:53:00,39.3,35.2,29.74,WSW,253,0.0,4.0,85,0.00,,SKC,1.26,VWS V14.01,2013-02-27 03:53:00,
2013-02-26 22:58:00,39.3,35.8,29.74,East,98,2.0,4.0,87,0.00,,SKC,1.26,VWS V14.01,2013-02-27 03:58:00,
2013-02-26 23:00:00,39.3,36.0,29.74,West,280,1.0,4.0,88,0.00,,SKC,1.26,VWS V14.01,2013-02-27 04:00:00,
2013-02-26 23:04:00,39.2,36.2,29.73,West,269,2.0,3.0,89,0.00,,SKC,1.26,VWS V14.01,2013-02-27 04:04:00,
2013-02-26 23:09:00,39.2,36.5,29.73,WNW,290,1.0,3.0,90,0.00,,SKC,1.26,VWS V14.01,2013-02-27 04:09:00,
2013-02-26 23:15:00,39.2,36.5,29.73,SW,233,1.0,5.0,90,0.00,,SKC,1.26,VWS V14.01,2013-02-27 04:15:00,
2013-02-26 23:20:00,39.1,36.1,29.74,West,277,1.0,5.0,89,0.00,,SKC,1.26,VWS V14.01,2013-02-27 04:20:00,
2013-02-26 23:26:00,39.1,36.1,29.74,ESE,115,0.0,6.0,89,0.00,,SKC,1.26,VWS V14.01,2013-02-27 04:26:00,
2013-02-26 23:30:00,39.0,36.0,29.74,West,267,3.0,6.0,89,0.00,,SKC,1.26,VWS V14.01,2013-02-27 04:30:00,
2013-02-26 23:31:00,39.0,36.0,29.74,West,280,1.0,3.0,89,0.00,,SKC,1.26,VWS V14.01,2013-02-27 04:31:00,
2013-02-26 23:36:00,39.0,35.8,29.74,WSW,256,3.0,3.0,88,0.00,,SKC,1.26,VWS V14.01,2013-02-27 04:36:00,
2013-02-26 23:42:00,39.1,35.8,29.74,WNW,285,1.0,3.0,88,0.00,,SKC,1.26,VWS V14.01,2013-02-27 04:42:00,
2013-02-26 23:47:00,39.0,35.8,29.74,SSE,160,1.0,5.0,88,0.00,,SKC,1.26,VWS V14.01,2013-02-27 04:47:00,
2013-02-26 23:53:00,38.9,35.4,29.74,West,271,0.0,5.0,87,0.00,,SKC,1.26,VWS V14.01,2013-02-27 04:53:00,
2013-02-26 23:59:00,38.8,35.3,29.74,West,274,5.0,8.0,87,0.00,,SKC,1.26,VWS V14.01,2013-02-27 04:59:00,